• In Russia
  • List of Countries
  • For 7 days
  • Water Temperature
  • Satellite Maps
  • Weather Map
  • Weather Widgets
  • user-avatar
    Login

    Hourly Weather Belize

    Today, 10 December, Monday

    Time Temperature Precipitation Wind Pressure Humidity
    00:00 +24°C° 0.1 mm 2 mps 762 mmHg 97%
    01:00 +24°C° 0.2 mm 3 mps 762 mmHg 98%
    02:00 +24°C° 0.2 mm 3 mps 762 mmHg 98%
    03:00 +23°C° 0.2 mm 4 mps 762 mmHg 98%
    04:00 +23°C° 0.2 mm 4 mps 762 mmHg 98%
    05:00 +23°C° 0.2 mm 5 mps 762 mmHg 98%
    06:00 +22°C° 0.2 mm 5 mps 762 mmHg 98%
    07:00 +22°C° 0.2 mm 5 mps 763 mmHg 97%
    08:00 +23°C° 0.2 mm 5 mps 764 mmHg 95%
    09:00 +23°C° 0.2 mm 5 mps 764 mmHg 94%
    10:00 +25°C° 0.2 mm 5 mps 764 mmHg 90%
    11:00 +25°C° 0.2 mm 5 mps 764 mmHg 86%
    12:00 +26°C° 0.2 mm 5 mps 764 mmHg 81%
    13:00 +26°C° 0.1 mm 5 mps 764 mmHg 80%
    14:00 +27°C° 0.1 mm 5 mps 763 mmHg 78%
    15:00 +27°C° 0.1 mm 5 mps 763 mmHg 77%
    16:00 +26°C° 0.3 mm 5 mps 763 mmHg 79%
    17:00 +24°C° 0.3 mm 6 mps 763 mmHg 80%
    18:00 +23°C° 0.3 mm 6 mps 764 mmHg 82%
    19:00 +23°C° 0.1 mm 6 mps 764 mmHg 83%
    20:00 +22°C° 0.1 mm 6 mps 765 mmHg 84%
    21:00 +21°C° 0.1 mm 6 mps 765 mmHg 85%
    22:00 +21°C° 0 mm 6 mps 765 mmHg 84%
    23:00 +21°C° 0 mm 7 mps 765 mmHg 83%

    Tomorrow, 11 December, Tuesday

    Time Temperature Precipitation Wind Pressure Humidity
    00:00 +21°C° 0 mm 7 mps 766 mmHg 83%
    01:00 +21°C° 0 mm 7 mps 766 mmHg 81%
    02:00 +20°C° 0 mm 7 mps 765 mmHg 80%
    03:00 +20°C° 0 mm 7 mps 765 mmHg 79%
    04:00 +20°C° 0 mm 7 mps 766 mmHg 80%
    05:00 +20°C° 0 mm 6 mps 766 mmHg 80%
    06:00 +20°C° 0 mm 6 mps 766 mmHg 81%
    07:00 +21°C° 0 mm 6 mps 767 mmHg 76%
    08:00 +22°C° 0 mm 6 mps 768 mmHg 72%
    09:00 +22°C° 0 mm 7 mps 768 mmHg 68%
    10:00 +24°C° 0 mm 6 mps 768 mmHg 63%
    11:00 +26°C° 0 mm 6 mps 767 mmHg 58%
    12:00 +27°C° 0 mm 6 mps 767 mmHg 53%
    13:00 +27°C° 0 mm 6 mps 766 mmHg 52%
    14:00 +27°C° 0 mm 6 mps 765 mmHg 52%
    15:00 +28°C° 0 mm 5 mps 765 mmHg 52%
    16:00 +26°C° 0 mm 5 mps 765 mmHg 59%
    17:00 +23°C° 0 mm 6 mps 765 mmHg 66%
    18:00 +21°C° 0 mm 6 mps 765 mmHg 73%
    19:00 +21°C° 0 mm 6 mps 766 mmHg 74%
    20:00 +20°C° 0 mm 6 mps 766 mmHg 76%
    21:00 +20°C° 0 mm 6 mps 766 mmHg 78%
    22:00 +20°C° 0 mm 6 mps 766 mmHg 79%
    23:00 +19°C° 0 mm 5 mps 766 mmHg 81%

    Day after tomorrow, 12 December, Wednesday

    Time Temperature Precipitation Wind Pressure Humidity
    00:00 +19°C° 0 mm 5 mps 765 mmHg 82%
    01:00 +19°C° 0.1 mm 5 mps 765 mmHg 83%
    02:00 +17°C° 0.1 mm 5 mps 764 mmHg 85%
    03:00 +17°C° 0.1 mm 5 mps 764 mmHg 86%
    04:00 +17°C° 0.1 mm 5 mps 764 mmHg 86%
    05:00 +17°C° 0.1 mm 5 mps 764 mmHg 86%
    06:00 +17°C° 0.1 mm 5 mps 764 mmHg 86%
    07:00 +19°C° 0.1 mm 5 mps 765 mmHg 81%
    08:00 +20°C° 0.1 mm 5 mps 765 mmHg 77%
    09:00 +21°C° 0.1 mm 5 mps 765 mmHg 72%
    10:00 +25°C° 0 mm 4 mps 765 mmHg 68%
    11:00 +27°C° 0 mm 4 mps 764 mmHg 64%
    12:00 +29°C° 0 mm 4 mps 763 mmHg 59%
    13:00 +28°C° 0 mm 4 mps 763 mmHg 64%
    14:00 +28°C° 0 mm 4 mps 762 mmHg 68%
    15:00 +27°C° 0 mm 4 mps 761 mmHg 73%
    16:00 +26°C° 0 mm 4 mps 761 mmHg 77%
    17:00 +25°C° 0 mm 4 mps 762 mmHg 81%
    18:00 +23°C° 0 mm 4 mps 762 mmHg 85%
    19:00 +23°C° 0.1 mm 4 mps 762 mmHg 86%
    20:00 +23°C° 0.1 mm 4 mps 762 mmHg 87%
    21:00 +23°C° 0.1 mm 4 mps 763 mmHg 88%
    22:00 +22°C° 0.2 mm 4 mps 762 mmHg 89%
    23:00 +22°C° 0.2 mm 4 mps 762 mmHg 91%

    13 December, Thursday

    Time Temperature Precipitation Wind Pressure Humidity
    00:00 +22°C° 0.2 mm 4 mps 762 mmHg 93%
    01:00 +22°C° 0.1 mm 4 mps 761 mmHg 93%
    02:00 +22°C° 0.1 mm 4 mps 761 mmHg 94%
    03:00 +22°C° 0.1 mm 3 mps 760 mmHg 94%
    04:00 +22°C° 0.1 mm 3 mps 760 mmHg 94%
    05:00 +22°C° 0.1 mm 3 mps 760 mmHg 95%
    06:00 +22°C° 0.1 mm 3 mps 760 mmHg 95%
    07:00 +25°C° 0 mm 3 mps 761 mmHg 91%
    08:00 +26°C° 0 mm 3 mps 761 mmHg 87%
    09:00 +27°C° 0 mm 3 mps 762 mmHg 83%
    10:00 +29°C° 0.1 mm 2 mps 761 mmHg 77%
    11:00 +30°C° 0.1 mm 2 mps 761 mmHg 72%
    12:00 +32°C° 0.1 mm 2 mps 761 mmHg 67%
    13:00 +32°C° 0 mm 2 mps 760 mmHg 65%
    14:00 +32°C° 0 mm 2 mps 759 mmHg 63%
    15:00 +32°C° 0 mm 2 mps 758 mmHg 61%
    16:00 +30°C° 0 mm 2 mps 759 mmHg 71%
    17:00 +28°C° 0 mm 3 mps 759 mmHg 80%
    18:00 +26°C° 0 mm 3 mps 759 mmHg 90%
    19:00 +26°C° 0 mm 2 mps 760 mmHg 92%
    20:00 +25°C° 0 mm 2 mps 760 mmHg 95%
    21:00 +25°C° 0 mm 2 mps 761 mmHg 97%
    22:00 +24°C° 0 mm 2 mps 761 mmHg 98%
    23:00 +24°C° 0 mm 1 mps 761 mmHg 98%

    14 December, Friday

    Time Temperature Precipitation Wind Pressure Humidity
    00:00 +24°C° 0 mm 1 mps 761 mmHg 98%
    01:00 +24°C° 0.1 mm 1 mps 760 mmHg 98%
    02:00 +24°C° 0.1 mm 1 mps 760 mmHg 99%
    03:00 +24°C° 0.1 mm 1 mps 760 mmHg 99%
    04:00 +24°C° 0.6 mm 2 mps 760 mmHg 99%
    05:00 +23°C° 0.6 mm 2 mps 761 mmHg 99%
    06:00 +23°C° 0.6 mm 2 mps 761 mmHg 99%
    07:00 +24°C° 1.8 mm 3 mps 762 mmHg 95%
    08:00 +26°C° 1.8 mm 3 mps 763 mmHg 92%
    09:00 +27°C° 1.8 mm 4 mps 763 mmHg 88%
    10:00 +27°C° 0.9 mm 4 mps 763 mmHg 86%
    11:00 +28°C° 0.9 mm 4 mps 763 mmHg 83%
    12:00 +29°C° 0.9 mm 4 mps 762 mmHg 81%
    13:00 +29°C° 0.6 mm 4 mps 762 mmHg 83%
    14:00 +29°C° 0.6 mm 4 mps 761 mmHg 85%
    15:00 +28°C° 0.6 mm 4 mps 761 mmHg 87%
    16:00 +27°C° 1 mm 4 mps 761 mmHg 90%
    17:00 +25°C° 1 mm 4 mps 762 mmHg 93%
    18:00 +23°C° 1 mm 4 mps 762 mmHg 95%
    19:00 +23°C° 1 mm 4 mps 763 mmHg 95%
    20:00 +22°C° 1 mm 5 mps 764 mmHg 95%
    21:00 +22°C° 1 mm 6 mps 764 mmHg 95%
    22:00 +21°C° 0.2 mm 6 mps 764 mmHg 95%
    23:00 +21°C° 0.2 mm 6 mps 764 mmHg 94%

    15 December, Saturday

    Time Temperature Precipitation Wind Pressure Humidity
    00:00 +21°C° 0.2 mm 6 mps 764 mmHg 93%
    01:00 +20°C° 0 mm 6 mps 764 mmHg 93%
    02:00 +19°C° 0 mm 6 mps 764 mmHg 92%
    03:00 +19°C° 0 mm 6 mps 764 mmHg 91%
    04:00 +17°C° 0 mm 6 mps 764 mmHg 91%
    05:00 +17°C° 0 mm 6 mps 765 mmHg 91%
    06:00 +17°C° 0 mm 6 mps 765 mmHg 91%
    07:00 +19°C° 0 mm 6 mps 766 mmHg 85%
    08:00 +20°C° 0 mm 5 mps 766 mmHg 78%
    09:00 +21°C° 0 mm 5 mps 766 mmHg 72%
    10:00 +23°C° 0 mm 5 mps 766 mmHg 66%
    11:00 +26°C° 0 mm 5 mps 765 mmHg 60%
    12:00 +27°C° 0 mm 4 mps 765 mmHg 54%
    13:00 +28°C° 0 mm 3 mps 764 mmHg 52%
    14:00 +28°C° 0 mm 3 mps 764 mmHg 50%
    15:00 +29°C° 0 mm 2 mps 763 mmHg 48%
    16:00 +27°C° 0 mm 2 mps 763 mmHg 56%
    17:00 +25°C° 0 mm 2 mps 763 mmHg 65%
    18:00 +23°C° 0 mm 2 mps 764 mmHg 73%
    19:00 +21°C° 0 mm 2 mps 764 mmHg 75%
    20:00 +21°C° 0 mm 2 mps 764 mmHg 78%
    21:00 +20°C° 0 mm 2 mps 765 mmHg 80%
    22:00 +20°C° 0 mm 2 mps 764 mmHg 82%
    23:00 +20°C° 0 mm 2 mps 764 mmHg 84%
    Show more